SCP
0 0 0 0 0 0 0 0 0 0 0 0 0 0 0 0 0 0 0 0 0 0 0 0 0 0 0 0 0 0 0 0 0 0 0 0 0 0 0 0 0 0 0 0 0 0 0 0 0
0 0 0 0 0 0 0 0 0 0 0 0 0 0 0 0 0 0 0 0 0 0 0 0 0 0 0 0 0 0 0 0 0 0 0 0 0 0 0 0 0 0 0 0 0 0 0 0 0
0 0 0 0 0 0 0 0 0 0 0 0 0 0 0 0 0 0 0 0 0 0 0 0 0 0 0 0 0 0 0 0 0 0 0 0 0 0 0 0 0 0 0 0 0 0 0 0 0
0 0 0 0 0 0 0 0 0 0 0 0 0 0 0 0 0 0 0 0 0 0 0 0 0 0 0 0 0 0 0 0 0 0 0 0 0 0 0 0 0 0 0 0 0 0 0 0 0
0 0 0 0 0 0 0 0 0 0 0 0 0 0 0 0 0 0 0 0 0 0 0 0 0 0 0 0 0 0 0 0 0 0 0 0 0 0 0 0 0 0 0 0 0 0 0 0 0
0 0 0 0 0 0 0 0 0 0 0 0 0 0 0 0 0 0 0 0 0 0 0 0 0 0 0 0 0 0 0 0 0 0 0 0 0 0 0 0 0 0 0 0 0 0 0 0 0
0 0 0 0 0 0 0 0 0 0 0 0 0 0 0 0 0 0 0 0 0 0 0 0 0 0 0 0 0 0 0 0 0 0 0 0 0 0 0 0 0 0 0 0 0 0 0 0 0
0 0 0 0 0 0 0 0 0 0 0 0 0 0 0 0 0 0 0 0 0 0 0 0 0 0 0 0 0 0 0 0 0 0 0 0 0 0 0 0 0 0 0 0 0 0 0 0 0
0 0 0 0 0 0 0 0 0 0 0 0 0 0 0 0 0 0 0 0 0 0 0 0 0 0 0 0 0 0 0 0 0 0 0 0 0 0 0 0 0 0 0 0 0 0 0 0 0
0 0 0 0 0 0 0 0 0 0 0 0 0 0 0 0 0 0 0 0 0 0 0 0 0 0 0 0 0 0 0 0 0 0 0 0 0 0 0 0 0 0 0 0 0 0 0 0 0
0 0 0 0 0 0 0 0 0 0 0 0 0 0 0 0 0 0 0 0 0 0 0 0 0 0 0 0 0 0 0 0 0 0 0 0 0 0 0 0 0 0 0 0 0 0 0 0 0
0 0 0 0 0 0 0 0 0 0 0 0 0 0 0 0 0 0 0 0 0 0 0 0 0 0 0 0 0 0 0 0 0 0 0 0 0 0 0 0 0 0 0 0 0 0 0 0 0
0 0 0 0 0 0 0 0 0 0 0 0 0 0 0 0 0 0 0 0 0 0 0 0 0 0 0 0 0 0 0 0 0 0 0 0 0 0 0 0 0 0 0 0 0 0 0 0 0
0 0 0 0 0 0 0 0 0 0 0 0 0 0 0 0 0 0 0 0 0 0 0 0 0 0 0 0 0 0 0 0 0 0 0 0 0 0 0 0 0 0 0 0 0 0 0 0 0
0 0 0 0 0 0 0 0 0 0 0 0 0 0 0 0 0 0 0 0 0 0 0 0 0 0 0 0 0 0 0 0 0 0 0 0 0 0 0 0 0 0 0 0 0 0 0 0 0
0 0 0 0 0 0 0 0 0 0 0 0 0 0 0 0 0 0 0 0 0 0 0 0 0 0 0 0 0 0 0 0 0 0 0 0 0 0 0 0 0 0 0 0 0 0 0 0 0
0 0 0 0 0 0 0 0 0 0 0 0 0 0 0 0 0 0 0 0 0 0 0 0 0 0 0 0 0 0 0 0 0 0 0 0 0 0 0 0 0 0 0 0 0 0 0 0 0
0 0 0 0 0 0 0 0 0 0 0 0 0 0 0 0 0 0 0 0 0 0 0 0 0 0 0 0 0 0 0 0 0 0 0 0 0 0 0 0 0 0 0 0 0 0 0 0 0
0 0 0 0 0 0 0 0 0 0 0 0 0 0 0 0 0 0 0 0 0 0 0 0 0 0 0 0 0 0 0 0 0 0 0 0 0 0 0 0 0 0 0 0 0 0 0 0 0
0 0 0 0 0 0 0 0 0 0 0 0 0 0 0 0 0 0 0 0 0 0 0 0 0 0 0 0 0 0 0 0 0 0 0 0 0 0 0 0 0 0 0 0 0 0 0 0 0
0 0 0 0 0 0 0 0 0 0 0 0 0 0 0 0 0 0 0 0 0 0 0 0 0 0 0 0 0 0 0 0 0 0 0 0 0 0 0 0 0 0 0 0 0 0 0 0 0
0 0 0 0 0 0 0 0 0 0 0 0 0 0 0 0 0 0 0 0 0 0 0 0 0 0 0 0 0 0 0 0 0 0 0 0 0 0 0 0 0 0 0 0 0 0 0 0 0
0 0 0 0 0 0 0 0 0 0 0 0 0 0 0 0 0 0 0 0 0 0 0 0 0 0 0 0 0 0 0 0 0 0 0 0 0 0 0 0 0 0 0 0 0 0 0 0 0
0 0 0 0 0 0 0 0 0 0 0 0 0 0 0 0 0 0 0 0 0 0 0 0 0 0 0 0 0 0 0 0 0 0 0 0 0 0 0 0 0 0 0 0 0 0 0 0 0
0 0 0 0 0 0 0 0 0 0 0 0 0 0 0 0 0 0 0 0 0 0 0 0 0 0 0 0 0 0 0 0 0 0 0 0 0 0 0 0 0 0 0 0 0 0 0 0 0
0 0 0 0 0 0 0 0 0 0 0 0 0 0 0 0 0 0 0 0 0 0 0 0 0 0 0 0 0 0 0 0 0 0 0 0 0 0 0 0 0 0 0 0 0 0 0 0 0
0 0 0 0 0 0 0 0 0 0 0 0 0 0 0 0 0 0 0 0 0 0 0 0 0 0 0 0 0 0 0 0 0 0 0 0 0 0 0 0 0 0 0 0 0 0 0 0 0
0 0 0 0 0 0 0 0 0 0 0 0 0 0 0 0 0 0 0 0 0 0 0 0 0 0 0 0 0 0 0 0 0 0 0 0 0 0 0 0 0 0 0 0 0 0 0 0 0
0 0 0 0 0 0 0 0 0 0 0 0 0 0 0 0 0 0 0 0 0 0 0 0 0 0 0 0 0 0 0 0 0 0 0 0 0 0 0 0 0 0 0 0 0 0 0 0 0
0 0 0 0 0 0 0 0 0 0 0 0 0 0 0 0 0 0 0 0 0 0 0 0 0 0 0 0 0 0 0 0 0 0 0 0 0 0 0 0 0 0 0 0 0 0 0 0 0
Wind_Speed
3 2 2 3 4 4 6 4 3 4 4 2 3 2 2 1 1 4 5 5 5 6 6 8 7 8 8 9 10 10 10 10 10 11 11 12 11 11 11 11 11 12 12 12 12 12 12 12 12
2 1 3 3 6 7 5 5 6 4 4 4 3 2 2 2 4 5 4 4 5 6 6 7 8 8 9 9 10 10 10 10 10 10 11 11 11 11 11 11 11 11 11 11 11 11 11 11 12
1 2 3 4 6 6 5 5 4 4 4 3 3 1 1 3 3 4 4 4 6 6 6 7 8 8 9 9 10 10 10 10 10 10 10 10 11 11 11 11 10 10 10 10 11 11 11 11 10
2 3 3 5 7 5 3 4 5 6 4 2 3 4 3 3 2 3 4 5 6 6 6 7 7 8 9 9 9 10 10 10 10 10 10 10 10 10 11 10 10 10 10 10 10 10 10 9 9
2 3 5 6 7 4 2 3 4 5 4 4 3 3 4 3 3 4 5 5 6 6 6 7 6 8 8 9 9 9 10 10 10 10 10 10 10 10 10 10 10 9 9 9 9 9 8 8 8
3 4 7 9 8 5 3 3 4 3 3 3 3 4 4 4 4 5 5 5 5 6 6 6 6 7 8 8 8 9 9 10 10 10 9 9 9 9 9 9 9 9 9 8 8 8 8 7 7
3 4 6 7 7 7 4 4 5 4 4 3 2 3 4 4 4 5 5 5 5 5 5 5 6 7 7 7 8 8 8 9 9 9 9 9 9 9 9 8 8 8 8 8 8 7 7 7 7
2 3 5 7 8 7 5 4 2 3 2 2 2 3 4 5 5 5 5 5 5 5 4 4 5 5 6 6 8 8 8 8 9 9 8 8 8 8 8 8 8 7 7 7 7 7 7 6 6
3 5 7 7 7 5 5 4 2 1 3 3 1 1 3 7 7 7 5 5 5 4 3 4 4 4 5 5 6 7 7 7 7 7 7 5 5 5 5 7 7 7 6 6 6 6 5 4 5
3 6 6 3 3 4 6 5 4 5 5 4 3 3 6 8 8 8 6 6 6 5 4 3 4 4 4 4 5 4 4 4 4 4 5 3 3 3 4 6 6 6 5 4 5 4 3 2 2
2 4 3 2 1 3 5 4 4 5 5 5 5 7 8 8 7 7 6 5 5 4 3 3 3 4 4 3 3 2 2 3 3 4 4 3 3 3 2 2 2 3 3 2 2 1 2 2 2
2 1 1 1 1 3 4 4 4 5 3 1 3 7 9 9 8 7 6 5 5 4 3 3 3 3 3 4 3 3 2 2 2 3 3 2 2 2 2 1 1 1 1 1 1 1 1 1 1
4 2 1 0 1 2 3 4 3 3 2 1 4 7 8 8 7 6 5 5 5 4 4 3 3 3 3 3 3 3 3 2 3 2 2 2 2 2 2 1 1 1 1 1 1 1 1 1 1
2 3 2 1 2 2 3 3 4 4 3 4 5 6 7 7 7 6 6 5 5 4 4 4 4 3 3 3 3 3 3 3 3 2 3 2 2 2 1 1 1 1 1 1 1 1 1 1 1
3 3 3 3 4 3 3 6 7 5 5 5 5 6 6 6 6 6 6 6 5 5 4 5 4 4 4 3 3 2 2 3 2 2 2 2 2 1 1 1 0 0 0 0 0 1 1 1 1
3 5 5 3 3 3 6 9 5 4 5 6 6 6 6 6 6 6 5 5 5 5 5 5 4 4 4 3 3 2 2 2 2 2 2 2 2 1 1 1 0 0 0 0 0 0 1 1 2
5 6 6 4 3 4 7 8 3 3 6 6 6 6 6 5 6 5 5 5 5 5 5 6 5 5 5 4 3 3 2 2 2 2 2 2 2 1 1 1 0 0 0 0 0 1 1 1 2
6 7 7 6 2 4 7 8 5 5 6 7 7 7 7 6 6 5 5 5 4 5 5 6 6 5 5 4 3 3 2 2 1 1 1 2 1 2 1 1 1 0 0 0 0 1 1 1 2
4 6 6 4 2 5 8 9 8 6 7 8 8 8 8 8 6 5 4 4 4 4 5 6 6 6 5 4 3 3 2 2 1 1 1 1 2 2 1 1 1 1 0 0 0 1 1 1 2
6 6 6 3 1 4 6 10 9 8 9 9 10 9 9 8 7 6 5 5 5 5 5 5 6 6 5 4 3 2 2 2 1 1 1 1 1 2 1 1 1 1 1 1 0 1 1 1 1
7 9 7 4 2 3 6 9 9 6 6 7 8 9 10 9 9 8 7 7 6 6 6 5 6 6 6 5 3 3 2 2 1 1 1 1 1 1 1 1 1 1 1 1 1 1 1 1 1
7 6 6 5 4 3 3 7 7 7 7 7 8 8 9 9 9 8 8 7 7 6 5 5 6 6 6 6 5 5 4 3 3 2 2 2 1 1 1 1 1 1 1 2 2 2 2 2 2
3 2 3 4 5 5 5 7 7 5 8 9 8 8 8 8 8 8 7 7 6 5 5 5 5 6 6 6 6 6 4 3 2 2 2 1 1 1 1 1 1 2 2 2 2 2 2 2 2
4 3 2 2 4 7 8 9 8 6 8 8 7 6 6 5 6 6 5 5 5 4 4 5 5 5 5 6 6 6 6 4 4 3 2 2 1 1 1 1 1 2 2 2 2 3 3 3 3
5 5 3 4 5 7 4 9 9 4 4 6 6 6 4 4 4 4 5 5 5 5 4 4 5 5 5 5 6 6 6 5 5 4 3 2 2 1 2 2 2 2 2 2 3 3 3 3 3
7 7 5 5 6 4 5 10 6 1 2 3 4 4 3 3 4 4 4 5 5 5 5 4 5 5 5 5 5 5 5 4 3 3 2 2 2 1 2 2 2 2 2 2 3 2 3 3 3
5 6 2 1 1 5 7 7 6 3 3 2 2 2 2 3 3 3 3 4 5 5 5 5 5 4 4 5 4 4 5 4 3 3 3 2 2 1 2 1 1 1 2 2 2 2 3 3 3
3 3 4 5 5 7 7 8 6 4 5 3 3 3 3 2 3 2 3 3 4 4 4 4 4 4 4 4 4 3 4 4 3 3 3 3 2 2 2 2 2 1 1 2 2 2 2 3 2
4 5 4 4 4 5 6 4 1 4 3 4 4 3 3 3 3 2 2 2 3 3 4 4 3 3 3 3 3 4 3 4 3 3 3 3 3 3 3 2 2 2 2 2 2 2 2 2 2
5 6 6 5 5 5 6 4 2 2 2 3 3 3 2 2 2 2 2 2 3 3 3 3 3 3 3 3 3 3 3 3 3 3 3 3 3 3 2 2 2 2 2 2 2 2 2 3 3
Wind_Direction
308 286 236 221 220 218 216 192 183 158 147 124 126 162 158 112 356 73 88 117 120 137 138 139 124 121 118 111 107 106 102 98 94 93 92 91 89 87 86 84 81 80 79 79 79 78 77 76 75
295 235 216 221 227 212 199 189 184 167 119 124 132 159 140 101 47 81 112 116 131 133 135 135 121 118 118 115 110 107 105 102 97 92 90 89 88 88 87 84 81 79 78 78 77 78 78 77 76
221 244 222 209 223 222 190 162 160 136 134 156 139 98 66 86 90 102 98 131 136 129 129 122 121 118 119 117 113 110 106 103 99 95 92 90 90 87 85 82 80 78 78 78 77 77 78 77 76
225 195 210 224 213 217 219 143 143 150 148 153 156 129 101 58 71 95 119 136 136 130 127 120 120 123 119 117 114 111 109 105 102 98 95 92 91 90 86 83 80 78 76 76 76 75 75 76 74
241 215 203 211 216 202 195 156 167 176 157 152 171 140 116 88 89 116 130 133 132 127 124 125 118 123 120 117 114 111 111 107 103 98 95 94 92 89 87 84 82 79 77 76 75 74 73 70 70
198 215 217 212 202 193 187 180 187 187 165 155 167 150 111 111 122 125 128 130 128 126 125 123 112 116 118 116 111 109 111 109 105 100 95 91 87 88 86 84 82 80 77 74 71 68 67 64 64
224 210 224 215 203 201 197 193 204 192 183 175 182 157 134 142 126 132 130 124 123 122 126 126 135 131 118 109 105 104 106 105 102 98 94 89 85 83 80 79 78 77 74 71 67 66 64 60 59
259 209 208 209 207 204 173 170 202 212 180 127 208 188 156 147 139 141 133 126 120 119 125 130 138 142 141 130 105 101 99 100 99 95 90 88 87 84 77 73 66 70 70 67 66 64 63 60 58
226 221 216 209 208 192 169 180 161 178 151 149 164 8 89 132 145 145 142 138 133 127 127 132 135 138 140 138 123 115 106 99 105 102 94 102 109 102 92 72 60 60 61 61 61 61 59 57 70
216 220 222 227 222 186 175 188 170 174 183 179 162 132 128 144 154 160 163 161 157 152 145 143 143 141 145 139 138 137 132 127 124 120 118 117 107 93 85 77 63 59 56 60 58 61 71 43 66
217 226 205 200 173 185 181 185 182 191 206 206 191 165 153 158 164 174 176 174 169 161 148 148 148 146 147 141 139 136 135 133 128 122 118 115 108 106 99 100 94 81 67 64 67 81 56 37 37
188 207 221 195 183 201 194 183 189 221 239 240 184 161 163 170 176 183 182 182 175 165 162 151 145 152 149 146 141 141 137 135 129 126 124 124 113 108 102 97 83 77 62 44 27 10 32 28 36
209 201 172 91 131 164 169 199 211 229 248 145 148 161 171 175 180 183 182 181 181 173 172 160 151 149 148 148 146 141 136 132 129 129 132 123 123 118 111 101 85 60 41 34 4 350 2 4 17
180 183 189 226 216 212 198 231 230 232 195 172 166 171 179 181 182 185 189 188 187 183 180 163 153 150 145 143 143 142 143 137 136 134 124 122 122 122 125 118 83 40 20 11 345 355 340 340 349
167 174 204 229 225 215 211 240 230 222 202 199 198 188 184 191 190 196 197 197 193 189 183 169 160 154 149 144 142 141 144 143 139 131 131 129 120 125 127 117 97 27 9 354 346 25 351 344 335
184 206 216 199 213 209 221 241 218 200 201 210 210 204 194 196 202 208 204 199 198 189 181 170 159 157 154 149 142 132 142 142 137 135 141 139 133 132 128 122 94 6 45 350 342 1 344 320 317
197 217 222 204 201 206 221 246 224 196 207 216 213 213 209 206 209 213 212 207 202 192 181 171 162 161 157 149 142 132 125 130 137 140 137 143 149 159 148 140 125 163 87 1 339 339 317 309 316
204 215 222 221 185 221 231 246 244 224 228 227 222 220 217 219 221 217 216 214 208 198 186 176 169 164 159 156 150 137 128 128 135 130 135 153 163 171 161 155 142 133 119 44 331 338 327 310 313
216 217 228 242 261 242 241 253 255 243 234 233 230 227 225 227 226 217 214 210 202 196 193 185 180 170 166 164 167 163 164 160 145 138 133 176 175 169 167 167 161 181 196 234 293 301 304 320 318
214 220 233 252 254 252 257 263 260 243 236 235 232 228 227 224 222 217 211 206 205 199 197 193 188 181 177 175 171 169 163 162 160 148 153 171 184 179 183 186 182 197 200 206 258 281 285 310 319
220 228 231 237 270 248 272 264 241 230 233 238 240 236 232 225 219 214 211 208 205 205 205 203 194 187 184 178 159 145 146 151 174 176 172 171 165 179 187 196 201 209 213 215 226 241 255 268 278
229 233 223 218 229 239 244 267 239 229 237 238 236 232 232 228 225 218 211 210 210 209 206 207 200 189 186 181 178 179 187 194 199 200 200 183 189 187 194 205 212 218 226 229 230 231 248 246 247
213 173 201 220 234 252 228 251 255 219 238 239 234 230 230 227 224 220 214 212 211 205 201 203 200 192 186 187 187 186 192 196 179 180 191 191 188 195 194 210 226 223 228 232 242 245 244 247 252
160 148 153 210 228 243 224 232 257 219 233 241 234 230 226 223 223 219 214 207 203 199 193 194 190 189 184 184 188 190 188 185 178 184 188 203 205 210 208 215 220 235 243 237 242 246 245 250 253
187 178 195 208 217 235 195 232 251 247 251 260 257 248 234 222 216 209 204 205 201 196 188 188 182 179 180 184 186 188 187 184 189 193 193 198 214 230 224 228 229 228 233 236 241 244 249 251 249
200 209 215 225 230 229 204 237 249 272 299 292 279 269 235 219 216 215 211 209 205 199 189 185 184 180 179 181 185 185 183 185 189 193 196 203 216 223 231 234 246 247 239 236 238 245 248 248 250
190 211 242 237 285 254 234 250 264 230 252 250 266 257 228 221 222 224 221 211 203 199 194 189 187 185 183 184 178 180 179 180 179 182 187 196 203 210 217 227 235 249 248 242 236 239 246 251 253
251 172 178 203 222 243 246 244 239 217 235 242 257 263 251 235 231 233 229 216 205 198 190 185 184 185 186 185 181 178 180 181 181 183 188 194 200 212 217 221 229 240 244 246 242 245 246 249 257
183 189 206 206 244 249 253 243 209 245 239 241 250 261 251 232 230 232 232 220 198 188 181 178 179 179 182 183 180 178 181 181 181 190 194 198 198 207 218 224 229 239 244 245 242 247 248 244 250
242 216 199 211 217 234 262 266 78 269 271 256 262 267 263 248 253 251 231 208 190 188 185 183 181 179 181 179 174 182 185 182 187 192 196 198 199 205 214 219 228 237 242 243 242 242 245 247 250